This demonstration page uses our WeatherBlox Daily Observations layout. Learn more.

Left ArrowRight Arrow

Hourly Observations for January 5, 2017

Temp ( °F °C ) Dew Point ( °F °C ) Humidity (%) Winds ( mph kmh ) Pressure ( in mb ) Visibility ( mi km ) Precip ( " mm )
12:15 am 00:15 Clear 34 1 12 -11 41 41 WNW 16 26 29.94 1014 10 16.0934 0 0
12:55 am 00:55 Clear 32 0 12 -11 44 44 W 10 17 29.94 1014 10 16.0934 0 0
1:15 am 01:15 Clear 32 0 12 -11 44 44 WNW 8 13 29.94 1014 10 16.0934 0 0
1:36 am 01:36 Clear 30 -1 14 -10 51 51 WNW 9 15 29.94 1014 10 16.0934 0 0
1:56 am 01:56 Clear 28 -2 16 -9 59 59 WNW 9 15 29.94 1014 10 16.0934 0 0
2:16 am 02:16 Clear 30 -1 14 -10 51 51 WNW 10 17 29.94 1014 10 16.0934 0 0
2:36 am 02:36 Clear 30 -1 12 -11 47 47 WNW 12 19 29.97 1015 10 16.0934 0 0
2:55 am 02:55 Clear 30 -1 12 -11 47 47 WNW 7 11 29.97 1015 10 16.0934 0 0
3:15 am 03:15 Clear 30 -1 12 -11 47 47 NW 6 9 29.97 1015 10 16.0934 0 0
3:35 am 03:35 Clear 28 -2 14 -10 55 55 W 5 7 30 1016 10 16.0934 0 0
3:57 am 03:57 Clear 28 -2 16 -9 59 59 WNW 9 15 29.97 1015 10 16.0934 0 0
4:15 am 04:15 Clear 28 -2 12 -11 51 51 Calm 30 1016 10 16.0934 0 0
4:36 am 04:36 Clear 28 -2 12 -11 51 51 Calm 30 1016 10 16.0934 0 0
4:56 am 04:56 Clear 28 -2 16 -9 59 59 NW 8 13 30 1016 10 16.0934 0 0
5:15 am 05:15 Clear 28 -2 14 -10 55 55 Calm 30 1016 10 16.0934 0 0
5:36 am 05:36 Clear 28 -2 16 -9 59 59 WNW 5 7 30 1016 10 16.0934 0 0
5:56 am 05:56 Clear 28 -2 16 -9 59 59 Calm 30 1016 10 16.0934 0 0
6:15 am 06:15 Clear 30 -1 14 -10 51 51 NNW 10 17 30 1016 10 16.0934 0 0
6:36 am 06:36 Clear 30 -1 12 -11 47 47 NW 6 9 30.03 1017 10 16.0934 0 0
6:55 am 06:55 Clear 30 -1 16 -9 55 55 NW 10 17 30.03 1017 10 16.0934 0 0
7:16 am 07:16 Clear 30 -1 14 -10 51 51 NW 5 7 30.06 1018 10 16.0934 0 0
7:35 am 07:35 Partly Cloudy 30 -1 16 -9 55 55 NW 5 7 30.06 1018 10 16.0934 0 0
7:56 am 07:56 Mostly Cloudy 30 -1 16 -9 55 55 NNW 3 6 30.06 1018 10 16.0934 0 0
8:16 am 08:16 Cloudy 30 -1 14 -10 51 51 NW 8 13 30.06 1018 10 16.0934 0 0
8:36 am 08:36 Cloudy 30 -1 14 -10 51 51 NW 6 9 30.06 1018 10 16.0934 0 0
8:56 am 08:56 Cloudy 30 -1 14 -10 51 51 Calm 30.06 1018 10 16.0934 0 0
9:15 am 09:15 Cloudy 30 -1 14 -10 51 51 NNW 3 6 30.06 1018 10 16.0934 0 0
9:35 am 09:35 Cloudy 30 -1 12 -11 47 47 Calm 30.06 1018 10 16.0934 0 0
9:56 am 09:56 Cloudy 30 -1 14 -10 51 51 Calm 30.06 1018 10 16.0934 0 0
10:15 am 10:15 Cloudy 32 0 14 -10 47 47 Calm 30.09 1019 10 16.0934 0 0
10:35 am 10:35 Cloudy 32 0 14 -10 47 47 Calm 30.06 1018 10 16.0934 0 0
10:55 am 10:55 Cloudy 34 1 14 -10 44 44 Calm 30.06 1018 10 16.0934 0 0
11:16 am 11:16 Cloudy 32 0 12 -11 44 44 Calm 30.06 1018 10 16.0934 0 0
11:35 am 11:35 Cloudy 34 1 12 -11 41 41 Calm 30.03 1017 10 16.0934 0 0
11:57 am 11:57 Cloudy 34 1 12 -11 41 41 Calm 30.03 1017 10 16.0934 0 0
12:16 pm 12:16 Cloudy 34 1 12 -11 41 41 Calm 30 1016 10 16.0934 0 0
12:35 pm 12:35 Cloudy 34 1 12 -11 41 41 Calm 30 1016 10 16.0934 0 0
12:58 pm 12:58 Cloudy 34 1 14 -10 44 44 Calm 30 1016 10 16.0934 0 0
1:16 pm 13:16 Cloudy 34 1 12 -11 41 41 Calm 30 1016 10 16.0934 0 0
1:35 pm 13:35 Cloudy 34 1 14 -10 44 44 Calm 30 1016 10 16.0934 0 0
1:56 pm 13:56 Cloudy 34 1 19 -7 56 56 S 7 11 30 1016 10 16.0934 0 0
2:16 pm 14:16 Cloudy 34 1 21 -6 60 60 Calm 30 1016 10 16.0934 0 0
2:36 pm 14:36 Cloudy 34 1 21 -6 60 60 SSW 7 11 29.97 1015 10 16.0934 0 0
2:56 pm 14:56 Cloudy 34 1 21 -6 60 60 SSW 6 9 30 1016 10 16.0934 0 0
3:16 pm 15:16 Cloudy 34 1 23 -5 65 65 S 8 13 30 1016 10 16.0934 0 0
3:36 pm 15:36 Cloudy 34 1 25 -4 70 70 S 12 19 29.97 1015 10 16.0934 0 0
3:56 pm 15:56 Cloudy 34 1 27 -3 75 75 S 10 17 29.97 1015 10 16.0934 0 0
4:16 pm 16:16 Cloudy 34 1 27 -3 75 75 S 3 6 29.97 1015 10 16.0934 0 0
4:36 pm 16:36 Cloudy 32 0 28 -2 87 87 Calm 29.97 1015 10 16.0934 0 0
4:56 pm 16:56 Cloudy 32 0 28 -2 87 87 Calm 29.97 1015 10 16.0934 0 0
5:16 pm 17:16 Cloudy 32 0 28 -2 87 87 Calm 29.97 1015 10 16.0934 0 0
5:36 pm 17:36 Cloudy 32 0 28 -2 87 87 Calm 29.97 1015 10 16.0934 0 0
5:56 pm 17:56 Cloudy 32 0 28 -2 87 87 Calm 29.97 1015 10 16.0934 0 0
6:16 pm 18:16 Cloudy 32 0 28 -2 87 87 SE 3 6 29.97 1015 10 16.0934 0 0
6:36 pm 18:36 Cloudy 34 1 28 -2 81 81 SE 3 6 29.97 1015 10 16.0934 0 0
6:56 pm 18:56 Cloudy with Light Snow 32 0 28 -2 87 87 Calm 29.97 1015 10 16.0934 0 0
7:16 pm 19:16 Cloudy with Light Snow 32 0 28 -2 87 87 NNE 3 6 29.97 1015 10 16.0934 0 0
7:37 pm 19:37 Cloudy 32 0 28 -2 87 87 NE 3 6 29.97 1015 10 16.0934 0 0
7:55 pm 19:55 Cloudy with Light Snow 32 0 30 -1 93 93 NNE 7 11 29.97 1015 10 16.0934 0 0
8:16 pm 20:16 Cloudy 32 0 30 -1 93 93 N 5 7 29.97 1015 10 16.0934 0 0
8:36 pm 20:36 Cloudy 32 0 30 -1 93 93 N 5 7 29.97 1015 10 16.0934 0 0
8:55 pm 20:55 Cloudy 32 0 30 -1 93 93 NNE 5 7 29.97 1015 10 16.0934 0 0
9:36 pm 21:36 Cloudy with Light Snow 32 0 30 -1 93 93 N 3 6 29.97 1015 10 16.0934 0 0
9:56 pm 21:56 Cloudy 32 0 30 -1 93 93 N 6 9 29.97 1015 10 16.0934 0 0
10:16 pm 22:16 Cloudy 32 0 30 -1 93 93 N 7 11 29.97 1015 10 16.0934 0 0
10:36 pm 22:36 Cloudy 32 0 30 -1 93 93 NNW 6 9 29.97 1015 10 16.0934 0 0
10:56 pm 22:56 Cloudy 32 0 30 -1 93 93 N 3 6 30 1016 10 16.0934 0 0
11:16 pm 23:16 Cloudy with Light Snow 32 0 30 -1 93 93 Calm 29.97 1015 10 16.0934 0 0
11:36 pm 23:36 Cloudy 32 0 30 -1 93 93 Calm 29.97 1015 10 16.0934 0 0
11:56 pm 23:56 Cloudy 32 0 32 0 100 100 NNE 3 6 29.97 1015 10 16.0934 0 0

Powered by AerisWeather